• Em Portugal
  • Lista de países
  • Para 7 dias
  • Temperatura da água
  • Mapas de satélite
  • Mapa do tempo
  • Widgets de tempo
  • user-avatar
    Iniciar Sessão

    Previsão horária em Chernomorec

    Hoje, 16 Outubro, Terça-feira

    Tempo Temperatura Precipitação Vento Pressão Humidade
    00:00 +13°C° 0 mm 4 m/s 766 mmHg 87%
    01:00 +13°C° 0 mm 4 m/s 766 mmHg 87%
    02:00 +13°C° 0 mm 3 m/s 766 mmHg 88%
    03:00 +13°C° 0 mm 4 m/s 766 mmHg 88%
    04:00 +12°C° 0 mm 4 m/s 766 mmHg 89%
    05:00 +12°C° 0 mm 4 m/s 766 mmHg 89%
    06:00 +13°C° 0 mm 4 m/s 766 mmHg 86%
    07:00 +13°C° 0 mm 4 m/s 766 mmHg 83%
    08:00 +14°C° 0 mm 4 m/s 766 mmHg 78%
    09:00 +17°C° 0 mm 4 m/s 766 mmHg 71%
    10:00 +19°C° 0 mm 4 m/s 766 mmHg 64%
    11:00 +21°C° 0 mm 4 m/s 766 mmHg 57%
    12:00 +22°C° 0 mm 4 m/s 766 mmHg 55%
    13:00 +23°C° 0 mm 4 m/s 766 mmHg 52%
    14:00 +23°C° 0 mm 4 m/s 765 mmHg 50%
    15:00 +22°C° 0 mm 4 m/s 765 mmHg 55%
    16:00 +22°C° 0 mm 4 m/s 765 mmHg 60%
    17:00 +21°C° 0 mm 4 m/s 765 mmHg 64%
    18:00 +19°C° 0 mm 3 m/s 765 mmHg 69%
    19:00 +18°C° 0 mm 3 m/s 765 mmHg 75%
    20:00 +17°C° 0 mm 2 m/s 765 mmHg 80%
    21:00 +16°C° 0 mm 2 m/s 765 mmHg 80%
    22:00 +16°C° 0 mm 2 m/s 765 mmHg 79%
    23:00 +16°C° 0 mm 2 m/s 765 mmHg 79%

    Amanhã, 17 Outubro, Quarta-feira

    Tempo Temperatura Precipitação Vento Pressão Humidade
    00:00 +16°C° 0 mm 2 m/s 765 mmHg 78%
    01:00 +14°C° 0 mm 3 m/s 765 mmHg 77%
    02:00 +14°C° 0 mm 3 m/s 765 mmHg 76%
    03:00 +14°C° 0 mm 3 m/s 764 mmHg 75%
    04:00 +13°C° 0 mm 3 m/s 764 mmHg 74%
    05:00 +13°C° 0 mm 3 m/s 764 mmHg 73%
    06:00 +14°C° 0 mm 3 m/s 764 mmHg 70%
    07:00 +15°C° 0 mm 4 m/s 764 mmHg 66%
    08:00 +15°C° 0 mm 4 m/s 764 mmHg 63%
    09:00 +18°C° 0.1 mm 4 m/s 764 mmHg 58%
    10:00 +20°C° 0.1 mm 4 m/s 764 mmHg 54%
    11:00 +22°C° 0.1 mm 4 m/s 764 mmHg 49%
    12:00 +23°C° 0 mm 4 m/s 764 mmHg 49%
    13:00 +23°C° 0 mm 4 m/s 763 mmHg 49%
    14:00 +25°C° 0 mm 5 m/s 763 mmHg 49%
    15:00 +23°C° 0 mm 4 m/s 763 mmHg 54%
    16:00 +22°C° 0 mm 4 m/s 763 mmHg 60%
    17:00 +21°C° 0 mm 4 m/s 763 mmHg 65%
    18:00 +20°C° 0 mm 3 m/s 763 mmHg 69%
    19:00 +19°C° 0 mm 3 m/s 763 mmHg 73%
    20:00 +18°C° 0 mm 3 m/s 763 mmHg 77%
    21:00 +17°C° 0 mm 3 m/s 763 mmHg 81%
    22:00 +17°C° 0 mm 3 m/s 763 mmHg 84%
    23:00 +16°C° 0 mm 3 m/s 763 mmHg 88%

    Depois de amanhã, 18 Outubro, Quinta-feira

    Tempo Temperatura Precipitação Vento Pressão Humidade
    00:00 +16°C° 0 mm 3 m/s 763 mmHg 90%
    01:00 +16°C° 0 mm 3 m/s 762 mmHg 91%
    02:00 +16°C° 0 mm 3 m/s 762 mmHg 92%
    03:00 +14°C° 0 mm 3 m/s 762 mmHg 92%
    04:00 +14°C° 0 mm 3 m/s 762 mmHg 93%
    05:00 +14°C° 0 mm 3 m/s 762 mmHg 93%
    06:00 +14°C° 0 mm 3 m/s 762 mmHg 91%
    07:00 +16°C° 0 mm 3 m/s 762 mmHg 89%
    08:00 +15°C° 0 mm 4 m/s 762 mmHg 87%
    09:00 +18°C° 0 mm 3 m/s 762 mmHg 81%
    10:00 +19°C° 0 mm 3 m/s 762 mmHg 75%
    11:00 +20°C° 0 mm 3 m/s 762 mmHg 69%
    12:00 +21°C° 0.1 mm 3 m/s 762 mmHg 65%
    13:00 +22°C° 0.1 mm 4 m/s 762 mmHg 61%
    14:00 +23°C° 0.1 mm 4 m/s 761 mmHg 57%
    15:00 +22°C° 0.3 mm 3 m/s 761 mmHg 61%
    16:00 +21°C° 0.3 mm 3 m/s 761 mmHg 66%
    17:00 +20°C° 0.3 mm 3 m/s 761 mmHg 70%
    18:00 +19°C° 0.1 mm 3 m/s 761 mmHg 76%
    19:00 +18°C° 0.1 mm 2 m/s 762 mmHg 82%
    20:00 +17°C° 0.1 mm 2 m/s 762 mmHg 87%
    21:00 +17°C° 0 mm 2 m/s 762 mmHg 88%
    22:00 +16°C° 0 mm 2 m/s 762 mmHg 90%
    23:00 +16°C° 0 mm 1 m/s 762 mmHg 91%

    19 Outubro, Sexta-feira

    Tempo Temperatura Precipitação Vento Pressão Humidade
    00:00 +16°C° 0 mm 2 m/s 762 mmHg 91%
    01:00 +16°C° 0 mm 2 m/s 762 mmHg 91%
    02:00 +16°C° 0 mm 2 m/s 762 mmHg 91%
    03:00 +15°C° 0 mm 2 m/s 762 mmHg 91%
    04:00 +15°C° 0 mm 2 m/s 762 mmHg 91%
    05:00 +15°C° 0 mm 2 m/s 762 mmHg 91%
    06:00 +16°C° 0 mm 2 m/s 762 mmHg 87%
    07:00 +16°C° 0 mm 2 m/s 762 mmHg 83%
    08:00 +17°C° 0 mm 2 m/s 762 mmHg 80%
    09:00 +19°C° 0 mm 2 m/s 762 mmHg 71%
    10:00 +21°C° 0 mm 2 m/s 762 mmHg 63%
    11:00 +24°C° 0 mm 2 m/s 762 mmHg 54%
    12:00 +25°C° 0 mm 2 m/s 762 mmHg 51%
    13:00 +25°C° 0 mm 2 m/s 762 mmHg 48%
    14:00 +26°C° 0 mm 2 m/s 762 mmHg 46%
    15:00 +25°C° 0 mm 2 m/s 762 mmHg 50%
    16:00 +24°C° 0 mm 2 m/s 762 mmHg 53%
    17:00 +23°C° 0 mm 2 m/s 762 mmHg 57%
    18:00 +22°C° 0 mm 1 m/s 762 mmHg 62%
    19:00 +21°C° 0 mm 1 m/s 762 mmHg 66%
    20:00 +19°C° 0 mm 1 m/s 762 mmHg 70%
    21:00 +19°C° 0 mm 1 m/s 762 mmHg 71%
    22:00 +19°C° 0 mm 1 m/s 762 mmHg 71%
    23:00 +18°C° 0 mm 1 m/s 763 mmHg 71%

    20 Outubro, Sábado

    Tempo Temperatura Precipitação Vento Pressão Humidade
    00:00 +18°C° 0 mm 1 m/s 762 mmHg 72%
    01:00 +18°C° 0 mm 1 m/s 762 mmHg 72%
    02:00 +18°C° 0 mm 1 m/s 762 mmHg 73%
    03:00 +16°C° 0 mm 2 m/s 762 mmHg 73%
    04:00 +16°C° 0 mm 2 m/s 762 mmHg 73%
    05:00 +16°C° 0 mm 2 m/s 762 mmHg 74%
    06:00 +16°C° 0 mm 2 m/s 763 mmHg 70%
    07:00 +17°C° 0 mm 2 m/s 763 mmHg 67%
    08:00 +18°C° 0 mm 2 m/s 763 mmHg 64%
    09:00 +20°C° 0 mm 2 m/s 763 mmHg 57%
    10:00 +23°C° 0 mm 2 m/s 763 mmHg 51%
    11:00 +24°C° 0 mm 2 m/s 763 mmHg 44%
    12:00 +25°C° 0 mm 2 m/s 763 mmHg 42%
    13:00 +25°C° 0 mm 2 m/s 763 mmHg 40%
    14:00 +26°C° 0 mm 2 m/s 762 mmHg 38%
    15:00 +25°C° 0 mm 2 m/s 762 mmHg 42%
    16:00 +24°C° 0 mm 2 m/s 762 mmHg 46%
    17:00 +23°C° 0 mm 2 m/s 762 mmHg 49%
    18:00 +20°C° 0 mm 2 m/s 762 mmHg 54%
    19:00 +19°C° 0 mm 2 m/s 763 mmHg 58%
    20:00 +19°C° 0 mm 1 m/s 763 mmHg 62%
    21:00 +18°C° 0 mm 1 m/s 763 mmHg 64%
    22:00 +18°C° 0 mm 1 m/s 763 mmHg 66%
    23:00 +15°C° 0 mm 0 m/s 763 mmHg 68%

    21 Outubro, Domingo

    Tempo Temperatura Precipitação Vento Pressão Humidade
    00:00 +16°C° 0 mm 1 m/s 763 mmHg 69%
    01:00 +16°C° 0 mm 1 m/s 763 mmHg 70%
    02:00 +15°C° 0 mm 1 m/s 763 mmHg 71%
    03:00 +15°C° 0 mm 1 m/s 763 mmHg 72%
    04:00 +15°C° 0 mm 1 m/s 763 mmHg 73%
    05:00 +15°C° 0 mm 1 m/s 763 mmHg 74%
    06:00 +15°C° 0 mm 2 m/s 763 mmHg 71%
    07:00 +16°C° 0 mm 2 m/s 763 mmHg 69%
    08:00 +17°C° 0 mm 2 m/s 763 mmHg 67%
    09:00 +18°C° 0 mm 2 m/s 763 mmHg 62%
    10:00 +20°C° 0 mm 3 m/s 763 mmHg 56%
    11:00 +21°C° 0 mm 4 m/s 763 mmHg 51%
    12:00 +22°C° 0 mm 4 m/s 762 mmHg 51%
    13:00 +22°C° 0 mm 4 m/s 762 mmHg 51%
    14:00 +22°C° 0 mm 4 m/s 762 mmHg 52%
    15:00 +21°C° 0 mm 5 m/s 761 mmHg 57%
    16:00 +20°C° 0 mm 5 m/s 761 mmHg 63%
    17:00 +19°C° 0 mm 5 m/s 761 mmHg 69%
    18:00 +17°C° 0 mm 5 m/s 762 mmHg 74%
    19:00 +16°C° 0 mm 5 m/s 762 mmHg 80%
    20:00 +15°C° 0 mm 4 m/s 762 mmHg 86%
    21:00 +15°C° 0 mm 4 m/s 762 mmHg 86%
    22:00 +15°C° 0 mm 4 m/s 762 mmHg 87%
    23:00 +15°C° 0 mm 4 m/s 762 mmHg 87%
    Mostrar mais